Home > Weather > Ashgabat > Past weeks

Flag for Turkmenistan Past Weather in Ashgabat, Turkmenistan — Yesterday and Last 2 Weeks

Now
73 °F

Clear.


Feels Like: 77 °F
Forecast: 76 / 97 °F
Wind: 3 mph from Southeast

Location: Ashgabat

Current Time: Jul 31, 2016 at 5:39:13 AM

Latest Report: Jul 31, 2016 at 5:00 AM


Visibility: N/A

Pressure: 29.86 "Hg

Humidity: 53%

Dew Point: 55 °F

Location of AshgabatLocation

Past Weather in Ashgabat — Graph

°F

Ashgabat Temperature Yesterday

Maximum temperature yesterday: 88 °F (at 5:00 PM)
Minimum temperature yesterday: 68 °F (at 2:00 AM)
Average temperature yesterday: 77 °F

High & Low Weather Summary for the Past Weeks

 TemperatureHumidityPressure
High109 °F (Jul 20, 5:00 PM)94% (Jul 30, 2:00 AM)29.95 "Hg (Jul 30, 2:00 AM)
Low68 °F (Jul 30, 2:00 AM)9% (Jul 23, 5:00 PM)29.53 "Hg (Jul 19, 5:00 PM)
Average90 °F35%29.73 "Hg
* Reported Jul 16 4:00 AM — Jul 31 4:00 AM, Ashgabat, Weather by CustomWeather, © 2016

Note: Actual official high and low records may vary slightly from our data, if they occured in-between our weather recording intervals... More about our weather records

Advertising

Ashgabat Weather History for the Previous 24 Hours

Scroll right to see more
 ConditionsComfort  
Time TempWeatherWind HumidityBarometerVisibility
4:00 AM
Sun, Jul 31
73 °FClear.5 mph57%29.86 "HgN/A
3:00 AM73 °FClear.6 mph61%29.86 "HgN/A
2:00 AM75 °FClear.2 mph54%29.86 "HgN/A
1:00 AM77 °FClear.6 mph54%29.86 "HgN/A
12:00 AM77 °FClear.3 mph54%29.89 "HgN/A
11:00 PM
Sat, Jul 30
79 °FClear.5 mph51%29.89 "HgN/A
10:00 PM81 °FClear.6 mph48%29.89 "Hg6 mi
9:00 PM82 °FClear.7 mph45%29.89 "HgN/A
8:00 PM84 °FClear.8 mph40%29.86 "HgN/A
7:00 PM86 °FPassing clouds.9 mph38%29.86 "HgN/A
6:00 PM86 °FPassing clouds.9 mph38%29.86 "HgN/A
5:00 PM88 °FPassing clouds.8 mph35%29.86 "HgN/A
4:00 PM86 °FPassing clouds.7 mph35%29.89 "HgN/A
3:00 PM86 °FPassing clouds.9 mph38%29.89 "HgN/A
2:00 PM84 °FPassing clouds.8 mph43%29.89 "HgN/A
1:00 PM81 °FScattered clouds.5 mph45%29.92 "HgN/A
12:00 PM81 °FScattered clouds.3 mph51%29.92 "Hg6 mi
11:00 AM79 °FScattered clouds.5 mph51%29.95 "HgN/A
10:00 AM75 °FScattered clouds.6 mph69%29.95 "HgN/A
9:00 AM72 °FPartly sunny.7 mph78%29.95 "HgN/A
8:00 AM70 °FMostly cloudy.2 mph83%29.95 "HgN/A
7:00 AM70 °FOvercast.7 mph83%29.92 "HgN/A
6:00 AM70 °FSprinkles. Mostly cloudy.6 mph88%29.92 "Hg6 mi
5:00 AM70 °FRain showers. Mostly cloudy.6 mph88%29.92 "Hg6 mi
Weather by CustomWeather, © 2016

See weather overviewHow to use our weather pages